WMT411 LATI-LIRZ

Flight info

Callsign WMT411
Flight time 1h 5m
Altitude 38000
Route DIRES DCT PAPIZ DCT DIVKU DCT SUXUB DCT MOPUV/N0353F180 Y106 GITOD
Aircraft A321/M-SDE1E2E3FGIJ1J4RWXY/LB1

Departure

Time 2026-04-30 12:03
Airport Tirana International Airport Mother Teresa (LATI)

Arrival

Time 2026-04-30 13:08
Airport Perugia San Francesco d'Assisi – Umbria International Airport (LIRZ)
Time Latitude Longitude Altitude Speed Heading
2026-04-30 11:53 41.41835 19.71543 124 ft 0 kts 257°
2026-04-30 11:55 41.41835 19.71544 124 ft 0 kts 257°
2026-04-30 11:59 41.41834 19.71542 124 ft 2 kts 253°
2026-04-30 11:59 41.41822 19.71533 119 ft 1 kts 190°
2026-04-30 11:59 41.41813 19.71540 124 ft 5 kts 154°
2026-04-30 11:59 41.41753 19.71589 122 ft 16 kts 153°
2026-04-30 12:00 41.41619 19.71623 124 ft 20 kts 173°
2026-04-30 12:00 41.41490 19.71639 126 ft 17 kts 174°
2026-04-30 12:00 41.41381 19.71656 127 ft 14 kts 174°
2026-04-30 12:00 41.41288 19.71668 129 ft 12 kts 174°
2026-04-30 12:01 41.41206 19.71679 130 ft 12 kts 172°
2026-04-30 12:01 41.41122 19.71695 130 ft 13 kts 172°
2026-04-30 12:01 41.41008 19.71716 131 ft 23 kts 172°
2026-04-30 12:01 41.40829 19.71754 132 ft 27 kts 171°
2026-04-30 12:02 41.40668 19.71798 132 ft 18 kts 139°
2026-04-30 12:02 41.40657 19.72000 132 ft 29 kts 76°
2026-04-30 12:02 41.40758 19.72147 134 ft 26 kts 358°
2026-04-30 12:02 41.41202 19.72094 128 ft 104 kts 354°
2026-04-30 12:03 41.42152 19.71967 154 ft 163 kts 354°
2026-04-30 12:03 41.44436 19.71668 1680 ft 169 kts 358°
2026-04-30 12:03 41.45674 19.71500 2062 ft 189 kts 355°
2026-04-30 12:04 41.46932 19.70726 2274 ft 216 kts 317°
2026-04-30 12:04 41.47570 19.68874 2540 ft 230 kts 273°
2026-04-30 12:04 41.47128 19.66846 2800 ft 239 kts 233°
2026-04-30 12:04 41.45951 19.65130 3036 ft 262 kts 221°
2026-04-30 12:05 41.44571 19.63550 3970 ft 261 kts 220°
2026-04-30 12:05 41.43154 19.62021 4918 ft 263 kts 220°
2026-04-30 12:05 41.41719 19.60474 5764 ft 267 kts 221°
2026-04-30 12:05 41.40278 19.58889 6633 ft 270 kts 222°
2026-04-30 12:06 41.38836 19.57269 7457 ft 273 kts 223°
2026-04-30 12:06 41.37384 19.55614 8270 ft 276 kts 223°
2026-04-30 12:06 41.35920 19.53930 9101 ft 280 kts 224°
2026-04-30 12:06 41.34462 19.52243 9911 ft 283 kts 224°
2026-04-30 12:07 41.32952 19.50491 10531 ft 298 kts 224°
2026-04-30 12:07 41.31324 19.48597 11054 ft 322 kts 224°
2026-04-30 12:07 41.29603 19.46600 11933 ft 333 kts 224°
2026-04-30 12:07 41.27836 19.44553 12874 ft 340 kts 225°
2026-04-30 12:08 41.26041 19.42483 13855 ft 343 kts 224°
2026-04-30 12:08 41.24404 19.40197 14625 ft 341 kts 239°
2026-04-30 12:08 41.23416 19.37376 15319 ft 337 kts 257°
2026-04-30 12:08 41.23205 19.34300 16000 ft 336 kts 276°
2026-04-30 12:09 41.23752 19.31291 16706 ft 336 kts 288°
2026-04-30 12:09 41.24518 19.28356 17450 ft 337 kts 288°
2026-04-30 12:09 41.25291 19.25403 18172 ft 339 kts 288°
2026-04-30 12:09 41.26060 19.22439 18815 ft 340 kts 288°
2026-04-30 12:10 41.26832 19.19458 19440 ft 342 kts 288°
2026-04-30 12:10 41.27606 19.16464 20072 ft 343 kts 288°
2026-04-30 12:10 41.28383 19.13450 20689 ft 345 kts 287°
2026-04-30 12:10 41.29164 19.10423 21313 ft 347 kts 287°
2026-04-30 12:11 41.29946 19.07378 21943 ft 349 kts 287°
2026-04-30 12:11 41.30730 19.04318 22559 ft 351 kts 287°
2026-04-30 12:11 41.31519 19.01239 23146 ft 353 kts 287°
2026-04-30 12:11 41.32313 18.98138 23708 ft 355 kts 287°
2026-04-30 12:12 41.33108 18.95020 24158 ft 357 kts 287°
2026-04-30 12:12 41.33911 18.91877 24631 ft 360 kts 287°
2026-04-30 12:12 41.34719 18.88716 25098 ft 362 kts 287°
2026-04-30 12:12 41.35530 18.85534 25555 ft 364 kts 287°
2026-04-30 12:13 41.36347 18.82332 25998 ft 366 kts 287°
2026-04-30 12:13 41.37169 18.79113 26427 ft 368 kts 287°
2026-04-30 12:13 41.37995 18.75875 26867 ft 370 kts 287°
2026-04-30 12:13 41.38823 18.72622 27304 ft 372 kts 287°
2026-04-30 12:14 41.39655 18.69347 27727 ft 374 kts 287°
2026-04-30 12:14 41.40488 18.66053 28144 ft 376 kts 287°
2026-04-30 12:14 41.41324 18.62737 28551 ft 379 kts 287°
2026-04-30 12:14 41.42163 18.59404 28962 ft 381 kts 287°
2026-04-30 12:15 41.43007 18.56044 29355 ft 383 kts 287°
2026-04-30 12:15 41.43841 18.52715 29733 ft 385 kts 287°
2026-04-30 12:15 41.44692 18.49321 30108 ft 387 kts 287°
2026-04-30 12:15 41.45546 18.45904 30429 ft 389 kts 287°
2026-04-30 12:16 41.46402 18.42472 30765 ft 391 kts 287°
2026-04-30 12:16 41.47261 18.39025 31126 ft 392 kts 287°
2026-04-30 12:16 41.48123 18.35563 31472 ft 394 kts 287°
2026-04-30 12:16 41.48985 18.32090 31839 ft 394 kts 287°
2026-04-30 12:17 41.50708 18.25174 32742 ft 391 kts 287°
2026-04-30 12:17 41.51573 18.21704 32914 ft 397 kts 287°
2026-04-30 12:17 41.52446 18.18191 33043 ft 401 kts 287°
2026-04-30 12:18 41.53326 18.14638 33226 ft 405 kts 287°
2026-04-30 12:18 41.54206 18.11069 33490 ft 405 kts 287°
2026-04-30 12:18 41.55087 18.07500 33798 ft 405 kts 287°
2026-04-30 12:18 41.55966 18.03930 34115 ft 404 kts 287°
2026-04-30 12:19 41.56843 18.00370 34379 ft 404 kts 287°
2026-04-30 12:19 41.57719 17.96809 34622 ft 404 kts 287°
2026-04-30 12:19 41.58593 17.93249 34856 ft 404 kts 287°
2026-04-30 12:19 41.59469 17.89679 35094 ft 404 kts 287°
2026-04-30 12:20 41.60340 17.86111 35346 ft 405 kts 287°
2026-04-30 12:20 41.61212 17.82533 35577 ft 405 kts 287°
2026-04-30 12:20 41.62083 17.78949 35810 ft 405 kts 287°
2026-04-30 12:20 41.62952 17.75361 36058 ft 405 kts 287°
2026-04-30 12:21 41.63820 17.71779 36335 ft 405 kts 287°
2026-04-30 12:21 41.64687 17.68204 36613 ft 404 kts 288°
2026-04-30 12:21 41.65555 17.64635 36860 ft 404 kts 288°
2026-04-30 12:21 41.66420 17.61065 37084 ft 404 kts 288°
2026-04-30 12:22 41.67284 17.57491 37324 ft 404 kts 288°
2026-04-30 12:22 41.68148 17.53917 37527 ft 404 kts 288°
2026-04-30 12:22 41.69011 17.50338 37729 ft 404 kts 288°
2026-04-30 12:22 41.69870 17.46754 37936 ft 404 kts 288°
2026-04-30 12:23 41.70727 17.43162 38095 ft 405 kts 288°
2026-04-30 12:23 41.71584 17.39571 38113 ft 406 kts 288°
2026-04-30 12:23 41.73303 17.32378 38123 ft 406 kts 288°
2026-04-30 12:24 41.75024 17.25176 38122 ft 406 kts 288°
2026-04-30 12:24 41.76724 17.18014 38131 ft 406 kts 288°
2026-04-30 12:25 41.78429 17.10803 38134 ft 406 kts 288°
2026-04-30 12:25 41.80127 17.03576 38139 ft 407 kts 288°
2026-04-30 12:26 41.81832 16.96343 38146 ft 407 kts 288°
2026-04-30 12:26 41.83536 16.89099 38162 ft 408 kts 288°
2026-04-30 12:27 41.85238 16.81836 38165 ft 408 kts 288°
2026-04-30 12:27 41.86930 16.74566 38175 ft 408 kts 287°
2026-04-30 12:28 41.88614 16.67283 38170 ft 408 kts 288°
2026-04-30 12:28 41.90298 16.60006 38178 ft 409 kts 288°
2026-04-30 12:29 41.91979 16.52719 38180 ft 409 kts 287°
2026-04-30 12:29 41.93654 16.45428 38185 ft 409 kts 287°
2026-04-30 12:30 41.95324 16.38133 38186 ft 409 kts 287°
2026-04-30 12:30 41.96998 16.30837 38188 ft 408 kts 288°
2026-04-30 12:31 41.98659 16.23540 38191 ft 408 kts 288°
2026-04-30 12:31 42.00306 16.16245 38197 ft 408 kts 287°
2026-04-30 12:32 42.01678 16.10177 38195 ft 408 kts 288°
2026-04-30 12:32 42.03325 16.02880 38197 ft 408 kts 287°
2026-04-30 12:33 42.04970 15.95572 38188 ft 408 kts 287°
2026-04-30 12:33 42.06613 15.88262 38171 ft 408 kts 287°
2026-04-30 12:34 42.08248 15.80947 38177 ft 408 kts 287°
2026-04-30 12:34 42.09875 15.73629 38180 ft 408 kts 287°
2026-04-30 12:35 42.11498 15.66299 38181 ft 408 kts 287°
2026-04-30 12:35 42.13115 15.58964 38174 ft 409 kts 287°
2026-04-30 12:36 42.14729 15.51616 38192 ft 409 kts 287°
2026-04-30 12:36 42.16336 15.44305 38204 ft 410 kts 287°
2026-04-30 12:37 42.17943 15.36933 38206 ft 410 kts 287°
2026-04-30 12:37 42.19555 15.29561 38217 ft 410 kts 287°
2026-04-30 12:38 42.21168 15.22179 38227 ft 410 kts 287°
2026-04-30 12:38 42.22767 15.14785 38225 ft 411 kts 287°
2026-04-30 12:39 42.24358 15.07384 38229 ft 411 kts 287°
2026-04-30 12:39 42.25945 14.99979 38230 ft 411 kts 287°
2026-04-30 12:40 42.27513 14.92665 37915 ft 398 kts 287°
2026-04-30 12:40 42.28277 14.89097 37634 ft 393 kts 287°
2026-04-30 12:40 42.29033 14.85559 37372 ft 391 kts 287°
2026-04-30 12:41 42.29786 14.82035 37102 ft 390 kts 287°
2026-04-30 12:41 42.30532 14.78525 36846 ft 389 kts 287°
2026-04-30 12:41 42.31277 14.75010 36589 ft 388 kts 287°
2026-04-30 12:41 42.32020 14.71506 36329 ft 388 kts 287°
2026-04-30 12:42 42.32762 14.68005 36083 ft 387 kts 287°
2026-04-30 12:42 42.33501 14.64511 35849 ft 387 kts 287°
2026-04-30 12:42 42.34240 14.61014 35600 ft 386 kts 287°
2026-04-30 12:42 42.34972 14.57533 35356 ft 385 kts 287°
2026-04-30 12:43 42.35696 14.54063 35120 ft 382 kts 287°
2026-04-30 12:43 42.36414 14.50616 34881 ft 379 kts 287°
2026-04-30 12:43 42.37129 14.47197 34640 ft 377 kts 287°
2026-04-30 12:43 42.37840 14.43797 34411 ft 374 kts 287°
2026-04-30 12:44 42.38545 14.40429 34184 ft 371 kts 287°
2026-04-30 12:44 42.39243 14.37081 33915 ft 367 kts 287°
2026-04-30 12:44 42.39920 14.33832 33555 ft 361 kts 287°
2026-04-30 12:44 42.40597 14.30582 33155 ft 355 kts 287°
2026-04-30 12:45 42.41258 14.27390 32751 ft 350 kts 286°
2026-04-30 12:45 42.41909 14.24242 32355 ft 345 kts 286°
2026-04-30 12:45 42.42550 14.21143 31958 ft 340 kts 287°
2026-04-30 12:45 42.43183 14.18082 31583 ft 335 kts 286°
2026-04-30 12:46 42.43807 14.15067 31202 ft 331 kts 286°
2026-04-30 12:46 42.44423 14.12086 30828 ft 327 kts 286°
2026-04-30 12:46 42.45034 14.09136 30455 ft 324 kts 286°
2026-04-30 12:46 42.45636 14.06215 30041 ft 321 kts 286°
2026-04-30 12:47 42.46227 14.03327 29672 ft 316 kts 286°
2026-04-30 12:47 42.46809 14.00474 29319 ft 312 kts 286°
2026-04-30 12:47 42.47384 13.97657 28977 ft 309 kts 286°
2026-04-30 12:47 42.47955 13.94857 28642 ft 308 kts 286°
2026-04-30 12:48 42.48522 13.92065 28301 ft 307 kts 286°
2026-04-30 12:48 42.49087 13.89278 27975 ft 306 kts 286°
2026-04-30 12:48 42.49652 13.86490 27647 ft 312 kts 286°
2026-04-30 12:48 42.50254 13.83532 27297 ft 339 kts 286°
2026-04-30 12:49 42.50889 13.80418 26773 ft 351 kts 286°
2026-04-30 12:49 42.51550 13.77172 26384 ft 354 kts 286°
2026-04-30 12:49 42.52194 13.73999 26020 ft 354 kts 286°
2026-04-30 12:49 42.52842 13.70788 25647 ft 353 kts 286°
2026-04-30 12:50 42.53488 13.67581 25260 ft 352 kts 286°
2026-04-30 12:50 42.54129 13.64387 24894 ft 351 kts 286°
2026-04-30 12:50 42.54768 13.61200 24504 ft 349 kts 286°
2026-04-30 12:50 42.55403 13.58025 24126 ft 348 kts 286°
2026-04-30 12:51 42.56035 13.54865 23723 ft 347 kts 286°
2026-04-30 12:51 42.56664 13.51711 23293 ft 346 kts 286°
2026-04-30 12:51 42.57289 13.48563 22869 ft 346 kts 287°
2026-04-30 12:51 42.57911 13.45432 22477 ft 341 kts 287°
2026-04-30 12:52 42.58524 13.42349 22085 ft 336 kts 287°
2026-04-30 12:52 42.59126 13.39322 21683 ft 329 kts 287°
2026-04-30 12:52 42.59719 13.36344 21297 ft 325 kts 287°
2026-04-30 12:52 42.60304 13.33403 20892 ft 321 kts 287°
2026-04-30 12:53 42.60881 13.30492 20503 ft 319 kts 287°
2026-04-30 12:53 42.61454 13.27588 20118 ft 318 kts 287°
2026-04-30 12:53 42.62023 13.24688 19732 ft 317 kts 287°
2026-04-30 12:53 42.62594 13.21793 19346 ft 317 kts 287°
2026-04-30 12:54 42.63163 13.18905 18942 ft 317 kts 287°
2026-04-30 12:54 42.63732 13.16019 18554 ft 316 kts 287°
2026-04-30 12:54 42.64299 13.13136 18130 ft 316 kts 287°
2026-04-30 12:54 42.64862 13.10255 17725 ft 315 kts 287°
2026-04-30 12:55 42.65419 13.07383 17336 ft 314 kts 287°
2026-04-30 12:55 42.65976 13.04523 16935 ft 312 kts 287°
2026-04-30 12:55 42.66531 13.01678 16542 ft 310 kts 287°
2026-04-30 12:55 42.67086 12.98849 16168 ft 309 kts 287°
2026-04-30 12:56 42.67637 12.96033 15788 ft 308 kts 287°
2026-04-30 12:56 42.68184 12.93223 15420 ft 307 kts 287°
2026-04-30 12:56 42.68728 12.90421 15015 ft 306 kts 287°
2026-04-30 12:56 42.69265 12.87631 14641 ft 304 kts 287°
2026-04-30 12:57 42.69797 12.84857 14257 ft 303 kts 287°
2026-04-30 12:57 42.70326 12.82097 13882 ft 301 kts 287°
2026-04-30 12:57 42.70857 12.79349 13484 ft 300 kts 287°
2026-04-30 12:57 42.71388 12.76598 13093 ft 300 kts 287°
2026-04-30 12:58 42.71911 12.73900 12740 ft 298 kts 288°
2026-04-30 12:58 42.72434 12.71184 12379 ft 297 kts 288°
2026-04-30 12:58 42.72953 12.68465 12012 ft 296 kts 285°
2026-04-30 12:58 42.73473 12.65746 11646 ft 297 kts 286°
2026-04-30 12:59 42.73989 12.63034 11283 ft 295 kts 288°
2026-04-30 12:59 42.74502 12.60337 10911 ft 295 kts 287°
2026-04-30 12:59 42.75018 12.57627 10545 ft 296 kts 287°
2026-04-30 12:59 42.75533 12.54922 10181 ft 294 kts 289°
2026-04-30 13:00 42.76040 12.52256 9910 ft 288 kts 287°
2026-04-30 13:00 42.76532 12.49647 9698 ft 280 kts 288°
2026-04-30 13:00 42.77019 12.47058 9182 ft 285 kts 285°
2026-04-30 13:00 42.77517 12.44434 8727 ft 286 kts 286°
2026-04-30 13:01 42.78009 12.41834 8308 ft 280 kts 287°
2026-04-30 13:01 42.78710 12.39413 7515 ft 272 kts 307°
2026-04-30 13:01 42.79977 12.37565 6980 ft 266 kts 328°
2026-04-30 13:01 42.81625 12.36482 6432 ft 263 kts 349°
2026-04-30 13:02 42.83444 12.36298 5888 ft 256 kts 10°
2026-04-30 13:02 42.85039 12.36945 5826 ft 226 kts 28°
2026-04-30 13:02 42.86276 12.38079 5764 ft 208 kts 40°
2026-04-30 13:02 42.87386 12.39329 5621 ft 210 kts 40°
2026-04-30 13:03 42.88505 12.40583 5316 ft 208 kts 40°
2026-04-30 13:03 42.89611 12.41821 5049 ft 204 kts 40°
2026-04-30 13:03 42.90695 12.43032 4743 ft 199 kts 40°
2026-04-30 13:03 42.91749 12.44210 4465 ft 193 kts 41°
2026-04-30 13:04 42.92815 12.45301 4239 ft 189 kts 32°
2026-04-30 13:04 42.94045 12.45924 4045 ft 190 kts 18°
2026-04-30 13:04 42.95318 12.46361 3780 ft 189 kts 18°
2026-04-30 13:04 42.96587 12.46799 3501 ft 186 kts 18°
2026-04-30 13:05 42.97802 12.47218 3230 ft 171 kts 20°
2026-04-30 13:05 42.98895 12.47595 2987 ft 153 kts 21°
2026-04-30 13:05 42.99858 12.47926 2797 ft 135 kts 20°
2026-04-30 13:06 43.01590 12.48533 2399 ft 128 kts 21°
2026-04-30 13:06 43.02440 12.48829 2177 ft 125 kts 19°
2026-04-30 13:06 43.03266 12.49117 1993 ft 125 kts 18°
2026-04-30 13:06 43.04100 12.49408 1799 ft 123 kts 17°
2026-04-30 13:07 43.04932 12.49698 1619 ft 121 kts 17°
2026-04-30 13:07 43.05723 12.49973 1422 ft 122 kts 16°
2026-04-30 13:07 43.06556 12.50264 1235 ft 124 kts 15°
2026-04-30 13:07 43.07405 12.50559 1054 ft 126 kts 15°
2026-04-30 13:08 43.08224 12.50849 894 ft 119 kts 15°
2026-04-30 13:08 43.09016 12.51117 704 ft 115 kts 15°
2026-04-30 13:08 43.09660 12.51344 683 ft 56 kts 14°
2026-04-30 13:08 43.09813 12.51365 681 ft 14 kts 307°
2026-04-30 13:09 43.09799 12.51246 681 ft 14 kts 244°
2026-04-30 13:09 43.09756 12.51124 685 ft 15 kts 245°
2026-04-30 13:09 43.09711 12.50983 684 ft 17 kts 246°
2026-04-30 13:09 43.09679 12.50883 683 ft 9 kts 246°
2026-04-30 13:10 43.09653 12.50801 684 ft 10 kts 246°
2026-04-30 13:10 43.09621 12.50699 686 ft 12 kts 246°
2026-04-30 13:10 43.09592 12.50613 686 ft 10 kts 246°
2026-04-30 13:10 43.09560 12.50514 680 ft 13 kts 246°
2026-04-30 13:11 43.09568 12.50450 680 ft 8 kts 310°
2026-04-30 13:11 43.09581 12.50435 683 ft 2 kts 318°
2026-04-30 13:11 43.09586 12.50421 683 ft 1 kts 280°
2026-04-30 13:11 43.09579 12.50392 685 ft 6 kts 251°
2026-04-30 13:12 43.09581 12.50339 684 ft 6 kts 284°
2026-04-30 13:12 43.09583 12.50329 684 ft 0 kts 286°